STARLINK-1400 (45700 NORAD) Tracking and Keplerian Element Data

This shows tracking and keplerian element data for the satellite.

Feedback or suggestion? Click here.




ElementValue
Catalog45700
NameSTARLINK-1400
Epoch Orbit552
Epoch Day185.50001157
Epoch Year2020
RAAN24.9316
Inclination52.9996
Eccentricity0.0001218
Argument of Perigee85.0562
Mean Anonmoly358.2947
Mean Motion15.62808052
Decay Rate-0.00050846
L11 45700U 20035AV 20185.50001157 -.00050846 00000-0 -55173-3 0 9990
L22 45700 52.9996 24.9316 0001218 85.0562 358.2947 15.62808052 5528

Live tracking and technical data element details for STARLINK-1400 (NORAD 45700). STARLINK-1400 can be tracked NOW for your location showing map with azimuth and elevation plus other details from your city location.

Track the satellite on the map from your city or location and see movement details for azimuth, elevation, latitude, longitude, range, height, and movement on the map or in text.







IsCatalogInMostPopularTable: catalog: 45700, numindb: 7
Update: records affected: 1



GetName: 45700 STARLINK-1400

Hit Count: updated at: Sat, 04 Jul 2020 01:31:15 GMT